Total_Precipitation_Accumulation
0.00 0.00 0.00 0.00 0.00 0.00 0.00 0.00 0.00 0.00 0.00 0.00 0.00 0.00 0.00 0.00 0.00 0.00 0.00 0.00 0.00 0.00 0.00 0.00 0.00 0.00 0.00 0.00 0.00 0.00 0.00 0.00 0.00 0.04 0.14 0.16 0.15 0.16 0.17 0.20 0.32 0.48 0.59 0.64
0.00 0.00 0.00 0.00 0.00 0.00 0.00 0.00 0.00 0.00 0.00 0.00 0.00 0.00 0.00 0.00 0.00 0.00 0.00 0.00 0.00 0.00 0.00 0.00 0.00 0.00 0.00 0.00 0.00 0.00 0.00 0.00 0.01 0.00 0.04 0.13 0.18 0.17 0.10 0.09 0.22 0.35 0.30 0.43
0.00 0.00 0.00 0.00 0.00 0.00 0.00 0.00 0.00 0.00 0.00 0.00 0.00 0.00 0.00 0.00 0.00 0.00 0.00 0.00 0.00 0.00 0.00 0.00 0.00 0.00 0.00 0.00 0.00 0.00 0.00 0.00 0.02 0.01 0.09 0.20 0.18 0.19 0.20 0.21 0.10 0.07 0.20 0.20
0.00 0.00 0.00 0.00 0.00 0.00 0.00 0.00 0.00 0.00 0.00 0.00 0.00 0.03 0.00 0.00 0.00 0.00 0.00 0.00 0.00 0.00 0.00 0.00 0.00 0.00 0.00 0.00 0.00 0.00 0.00 0.00 0.04 0.15 0.32 0.29 0.23 0.25 0.11 0.06 0.10 0.12 0.26 0.28
0.00 0.00 0.00 0.00 0.00 0.00 0.00 0.00 0.00 0.00 0.00 0.00 0.00 0.01 0.00 0.01 0.07 0.05 0.03 0.02 0.01 0.01 0.02 0.01 0.01 0.01 0.00 0.00 0.00 0.00 0.00 0.00 0.01 0.09 0.41 0.48 0.42 0.22 0.15 0.16 0.27 0.30 0.31 0.44
0.00 0.00 0.00 0.00 0.00 0.00 0.00 0.00 0.00 0.00 0.00 0.01 0.00 0.01 0.04 0.42 0.44 0.29 0.17 0.10 0.07 0.06 0.05 0.04 0.04 0.04 0.03 0.04 0.04 0.01 0.01 0.00 0.00 0.02 0.13 0.43 0.82 1.24 1.41 1.17 0.77 0.58 0.64 0.67
0.00 0.00 0.00 0.00 0.00 0.00 0.00 0.00 0.00 0.00 0.01 0.00 0.00 0.02 0.17 0.34 0.31 0.31 0.28 0.20 0.17 0.12 0.10 0.09 0.08 0.07 0.07 0.09 0.13 0.14 0.08 0.05 0.02 0.03 0.08 0.18 0.33 0.62 1.13 1.79 2.52 2.50 2.08 1.83
0.00 0.00 0.00 0.00 0.00 0.00 0.00 0.00 0.00 0.02 0.01 0.03 0.03 0.18 0.48 0.47 0.35 0.41 0.70 0.43 0.32 0.24 0.16 0.12 0.13 0.12 0.12 0.14 0.17 0.22 0.22 0.21 0.13 0.10 0.13 0.22 0.23 0.27 0.55 0.71 1.09 1.97 2.69 2.35
0.01 0.00 0.00 0.00 0.00 0.00 0.00 0.00 0.00 0.00 0.01 0.05 0.24 0.59 0.36 0.23 0.35 0.78 0.63 0.43 0.60 0.58 0.34 0.19 0.18 0.24 0.32 0.27 0.24 0.36 0.41 0.52 0.43 0.30 0.22 0.25 0.29 0.23 0.27 0.40 0.79 1.04 1.03 1.31
0.03 0.05 0.00 0.00 0.00 0.00 0.00 0.01 0.04 0.05 0.05 0.12 0.29 0.37 0.31 0.20 0.24 0.47 0.87 1.03 0.59 0.71 0.60 0.33 0.26 0.33 0.33 0.43 0.30 0.41 0.67 0.97 0.71 0.63 0.53 0.47 0.43 0.31 0.32 0.23 0.36 0.65 1.13 1.19
0.05 0.11 0.01 0.01 0.00 0.01 0.03 0.02 0.02 0.05 0.08 0.19 0.23 0.23 0.17 0.19 0.29 0.52 0.67 0.97 1.25 0.77 1.06 0.81 0.49 0.45 0.60 0.78 0.35 0.43 0.78 1.55 1.37 0.95 0.78 0.77 0.53 0.68 0.47 0.40 0.38 0.51 0.58 0.82
0.02 0.10 0.06 0.00 0.00 0.01 0.04 0.05 0.06 0.14 0.08 0.13 0.21 0.25 0.20 0.21 0.24 0.26 0.31 0.38 0.58 0.81 0.91 1.20 0.94 0.76 0.77 0.42 0.45 0.43 0.48 0.57 1.58 1.52 1.22 1.05 1.02 1.24 0.75 0.63 0.51 0.51 0.53 0.46
0.09 0.15 0.06 0.03 0.05 0.02 0.06 0.09 0.10 0.12 0.14 0.12 0.19 0.26 0.24 0.20 0.21 0.22 0.25 0.26 0.31 0.37 0.54 0.81 0.77 0.82 0.97 0.56 0.60 0.59 0.64 0.47 0.62 0.91 1.31 1.07 0.91 1.09 1.29 0.98 0.85 0.40 0.39 0.35
0.15 0.16 0.15 0.26 0.23 0.11 0.04 0.04 0.06 0.12 0.20 0.21 0.26 0.24 0.18 0.16 0.17 0.18 0.22 0.28 0.33 0.37 0.26 0.29 0.49 0.58 0.88 0.90 0.60 0.61 0.71 0.71 0.51 0.61 0.50 1.14 1.09 0.39 0.52 0.94 0.69 0.37 0.20 0.29
0.04 0.15 0.24 0.13 0.16 0.14 0.21 0.27 0.10 0.07 0.15 0.21 0.26 0.19 0.22 0.21 0.21 0.19 0.22 0.29 0.17 0.09 0.08 0.04 0.03 0.10 0.29 0.42 0.37 0.38 0.27 0.31 0.43 0.44 0.38 0.24 0.37 0.29 0.12 0.13 0.27 0.26 0.15 0.20
0.04 0.08 0.18 0.17 0.17 0.17 0.29 0.37 0.31 0.11 0.14 0.11 0.12 0.14 0.17 0.17 0.19 0.21 0.23 0.21 0.14 0.03 0.01 0.01 0.01 0.01 0.02 0.03 0.06 0.08 0.10 0.04 0.04 0.05 0.11 0.16 0.08 0.08 0.07 0.03 0.02 0.04 0.04 0.07
0.07 0.11 0.09 0.17 0.06 0.11 0.21 0.44 0.32 0.14 0.08 0.05 0.05 0.08 0.12 0.14 0.15 0.19 0.18 0.15 0.08 0.03 0.01 0.02 0.03 0.03 0.03 0.02 0.01 0.01 0.01 0.01 0.02 0.02 0.01 0.01 0.02 0.02 0.02 0.02 0.01 0.02 0.02 0.02
0.05 0.09 0.12 0.19 0.16 0.24 0.18 0.18 0.18 0.10 0.09 0.05 0.02 0.05 0.08 0.08 0.10 0.09 0.07 0.04 0.03 0.01 0.00 0.01 0.02 0.02 0.02 0.01 0.00 0.00 0.00 0.00 0.00 0.01 0.01 0.00 0.00 0.00 0.00 0.00 0.01 0.01 0.02 0.05
0.06 0.13 0.18 0.17 0.16 0.13 0.10 0.03 0.05 0.07 0.06 0.05 0.04 0.04 0.04 0.05 0.03 0.01 0.01 0.01 0.01 0.00 0.00 0.00 0.01 0.01 0.00 0.00 0.00 0.00 0.00 0.00 0.00 0.00 0.00 0.01 0.01 0.01 0.01 0.01 0.01 0.02 0.02 0.07
0.08 0.11 0.20 0.09 0.15 0.15 0.05 0.01 0.00 0.01 0.04 0.01 0.01 0.01 0.02 0.03 0.04 0.02 0.01 0.00 0.00 0.00 0.00 0.00 0.00 0.00 0.00 0.00 0.00 0.00 0.01 0.01 0.01 0.00 0.01 0.01 0.00 0.01 0.01 0.02 0.02 0.02 0.02 0.04
0.08 0.21 0.28 0.11 0.11 0.08 0.01 0.02 0.01 0.06 0.07 0.01 0.00 0.00 0.00 0.01 0.02 0.01 0.00 0.00 0.00 0.00 0.00 0.00 0.00 0.00 0.00 0.00 0.00 0.00 0.01 0.02 0.01 0.00 0.00 0.00 0.00 0.01 0.01 0.01 0.02 0.02 0.04 0.07
0.02 0.06 0.12 0.11 0.08 0.09 0.01 0.03 0.02 0.03 0.01 0.00 0.00 0.00 0.00 0.00 0.00 0.00 0.00 0.00 0.00 0.00 0.00 0.00 0.00 0.00 0.00 0.00 0.00 0.00 0.01 0.01 0.00 0.00 0.00 0.00 0.00 0.00 0.00 0.00 0.00 0.01 0.03 0.04
0.00 0.00 0.03 0.04 0.04 0.02 0.02 0.02 0.01 0.00 0.00 0.00 0.00 0.00 0.00 0.00 0.00 0.00 0.00 0.00 0.00 0.00 0.00 0.00 0.00 0.00 0.00 0.00 0.00 0.01 0.01 0.00 0.00 0.00 0.00 0.00 0.00 0.00 0.00 0.00 0.00 0.00 0.00 0.01
0.00 0.00 0.00 0.01 0.02 0.01 0.00 0.00 0.00 0.00 0.00 0.00 0.00 0.00 0.00 0.00 0.00 0.00 0.00 0.00 0.00 0.00 0.00 0.00 0.00 0.00 0.00 0.00 0.00 0.00 0.00 0.00 0.00 0.00 0.00 0.00 0.00 0.00 0.00 0.00 0.00 0.01 0.02 0.01
0.00 0.00 0.00 0.02 0.03 0.01 0.01 0.00 0.00 0.00 0.00 0.00 0.00 0.00 0.00 0.00 0.00 0.00 0.00 0.01 0.01 0.00 0.00 0.00 0.00 0.00 0.00 0.00 0.00 0.00 0.00 0.00 0.00 0.00 0.00 0.00 0.00 0.00 0.00 0.00 0.01 0.01 0.06 0.05
0.00 0.00 0.00 0.00 0.00 0.00 0.00 0.00 0.00 0.00 0.00 0.00 0.00 0.00 0.00 0.00 0.00 0.01 0.02 0.02 0.01 0.01 0.00 0.00 0.00 0.00 0.00 0.00 0.00 0.00 0.00 0.00 0.00 0.00 0.00 0.00 0.00 0.00 0.00 0.00 0.00 0.00 0.01 0.01